Regional Weather Roundup
Issued by NWS State College, PA

Home | Current Version | Previous Version | Graphics & Text | Print | Product List | Glossary On
Versions: 1 2 3 4 5 6 7 8 9 10 11 12 13 14 15 16 17 18 19 20 21 22 23 24 25 26 27 28 29 30 31 32 33 34 35 36 37 38 39 40 41 42 43 44 45 46 47 48 49 50
000
ASUS41 KCTP 291210
RWRCTP

REGIONAL WEATHER ROUNDUP
NATIONAL WEATHER SERVICE STATE COLLEGE PA
800 AM EDT WED MAR 29 2017

Note: "fair" indicates few or no clouds below 12,000 feet with no
significant weather and/or obstructions to visibility.

* = STATION THAT DOES NOT REPORT PRECIPITATION /E.G. RAIN...SNOW...ETC/
    THUNDER OR FOG.

PAZ002>004-007>009-013>016-020>023-029>032-291300-
WESTERN PENNSYLVANIA

CITY           SKY/WX    TMP DP  RH WIND       PRES   REMARKS
ERIE           CLEAR     35  32  88 CALM      30.22R
MEADVILLE      PTCLDY    38  33  82 CALM      30.19R
FRANKLIN*      CLOUDY    39  32  75 NE5       30.19R
NEW CASTLE     CLOUDY    42  35  76 N5        30.20R
BEAVER COUNTY  CLOUDY    43  37  81 N6        30.18R
BUTLER*        CLOUDY    43  36  75 NE7       30.19S
PITTSBURGH INT CLOUDY    45  40  82 N9        30.17R
PITTSBURGH     CLOUDY    44  36  73 N5        30.16R
INDIANA*       CLOUDY    43  37  81 N5        30.18S
LATROBE        CLOUDY    45  37  76 N9        30.17R
WASHINGTON CO* CLOUDY    45  37  76 NE7       30.18S
$$

PAZ004>006-010>012-017>019-024>028-033>037-041-042-045-046-049>053-291300-
CENTRAL PENNSYLVANIA

CITY           SKY/WX    TMP DP  RH WIND       PRES   REMARKS
BRADFORD       CLOUDY    37  31  78 NE3       30.14S
DUBOIS         NOT AVBL
CLEARFIELD       N/A    N/A N/A N/A MISG      30.15R
JOHNSTOWN      CLOUDY    40  36  86 N9        30.11R
ALTOONA        CLOUDY    46  37  71 N9        30.13R
STATE COLLEGE  CLOUDY    43  34  70 NE10G17   30.14R
WILLIAMSPORT   PTSUNNY   43  31  62 NW6       30.16R
SELINSGROVE    PTSUNNY   43  34  70 N10       30.16R
FT INDIANTOWN  MOSUNNY   45  35  67 N14G24    30.10R
CAPITAL CITY   MOSUNNY   49  34  56 N12       30.12R
HARRISBURG     MOSUNNY   47  36  65 N10       30.11R
YORK           CLOUDY    47  38  71 N6        30.11R
$$

PAZ038>040-043-044-047-048-054-055-060>062-067>071-291300-
EASTERN PENNSYLVANIA

CITY           SKY/WX    TMP DP  RH WIND       PRES   REMARKS
SCRANTON       CLOUDY    40  32  73 N8        30.12R
MOUNT POCONO   PTSUNNY   35  31  85 NW15G29   30.04R
ALLENTOWN      SUNNY     43  32  65 NW13      30.10R
QUAKERTOWN*    MOSUNNY   41  34  75 N6        30.09R
READING        PTSUNNY   45  36  70 N9        30.10R
LANCASTER      MOSUNNY   46  38  73 CALM      30.10R
COATESVILLE    SUNNY     43  36  75 N18G24    30.08R
POTTSTOWN      SUNNY     43  34  70 N12G22    30.09R
BLUE BELL      PTSUNNY   41  36  81 NW8       30.07R
DOYLESTOWN     CLOUDY    42  38  85 N8        30.06R
WILLOW GROVE   NOT AVBL
NORTH PHILA    CLOUDY    46  39  76 N12G22    30.08R
PHILADELPHIA   PTSUNNY   46  37  71 NW21G26   30.08R
$$



USA.gov is the U.S. government's official web portal to all federal, state and local government web resources and services.